Weather in Aydincik

Turkey     36°09′23″N   33°20′06″E
temp.,
°C
wind,
m/s
gust,
m/s
humid.,
%
clouds,
%
prec.,
mm/h
press.,
hPa
HPBL,
m
17 april, sat
sat1700:00+14nnw1157100 0.0 101711
03:00+13ne115360 0.0 101711
06:00+13nne115381 0.0 101711
09:00+19ene1236100 0.0 1018272
12:00+21s2137100 0.0 1018570
15:00+21ssw2247100 0.0 1017340
18:00+21ssw1143100 0.0 1017206
21:00+18n2248100 0.0 101816
18 april, sun
sun1800:00+18nnw1143100 0.0 101811
03:00+18n2238100 0.0 101712
06:00+17nnw1135100 0.0 101711
09:00+23ene1127100 0.0 1018106
12:00+25s3229100 0.0 1018592
15:00+25s3331100 0.0 1017521
18:00+23sse1135100 0.0 1017173
21:00+20n2136100 0.0 101811
19 april, mon
mon1900:00+19n2231100 0.0 101711
03:00+19nne2229100 0.0 101511
06:00+19nne3329100 0.0 101414
09:00+24ese1125100 0.0 1015228
12:00+27sse3424100 0.0 1013908
15:00+26sse4429100 0.0 1011825
18:00+24se2334100 0.0 1010472
21:00+20n114492 0.0 101011
20 april, tue
tue2000:00+19nw0044100 0.0 100911
03:00+18wsw115466 0.0 100912
06:00+17wnw2259100 0.0 100815
09:00+19ssw3551100 0.0 1009337
12:00+19ssw564284 0.0 1010552
15:00+20s45485 0.0 1010839
18:00+17s32570 0.0 1010385
21:00+14wnw11670 0.0 101224
21 april, wed
wed2100:00+12ene11800 0.0 101420
03:00+10e118817 0.0 101520
06:00+9wsw11861 0.0 101522
09:00+13s21672 0.0 1017475
12:00+16s43613 0.0 1017827
15:00+17s446639 0.0 1016760
18:00+15ssw22720 0.0 1015405
21:00+13wnw11785 0.0 101618